Погода в Новоильинске

Россия / Республика Бурятия     51°40′56″N   108°42′26″E
темп.,
°C
ветер,
м/с
пор.,
м/с
влажн.,
%
обл.,
%
осадки,
мм/ч
давл.,
гПа
погр.,
м
18 апреля, вс
вс1823:00+4в114648 0.0 100310
02:00+5зсз61362100 0.0 1005654
05:000з389235 0.0 1010383
08:00+1сз6115740 0.0 10151392
11:00+3сз6103219 0.0 10181915
14:00+4сз69225 0.0 10192062
17:00+2ссз45200 0.0 10201780
20:00−3ссв22323 0.0 102216
19 апреля, пн
пн1923:00−5всв1140100 0.0 102410
02:00−5в114096 0.0 102311
05:00−7всв11445 0.0 102310
08:00−1вюв12275 0.0 1022315
11:00+7ююв021891 0.0 1017943
14:00+12юз14195 0.0 10111627
17:00+13зюз47214 0.0 10072269
20:00+7юв113910 0.0 100710
20 апреля, вт
вт2023:00+4вюв2248100 0.0 100711
02:00+3в115981 0.1 100511
05:00+2зюз116248 0.1 100511
08:00+4зсз35498 0.1 1008504
11:00+7зсз3440100 0.0 1008832
14:00+11з45331 0.0 10061122
17:00+11зсз4433100 0.0 10051197
20:00+4сз3456100 0.0 1008111
21 апреля, ср
ср2123:00+1сз2659100 0.0 1011547
02:00−2сз249698 0.2 1014189
05:00−3зсз249587 0.1 1015207
08:00−1сз3574100 0.2 1016739
11:00+1ссз4462100 0.1 1017941
14:00+2ссз3457100 0.3 10151154
17:00−1ссз4781100 0.4 1018731
20:00−3ссз2784100 0.6 1021511
22 апреля, чт
чт2223:00−4з2486100 0.4 1024260
02:00−6сз1190100 0.4 102526
05:00−8ссз119399 0.0 102710
08:00−3ссз1259100 0.0 1027423
11:00+1ссз2243100 0.0 1026961
14:00+1с2347100 0.1 10261044
17:00+3св2351100 0.2 10261132
20:000ссв1173100 0.2 102815